Location: Lac Lasalle
(46.0398°N, 74.1576°W)
Time: 23:58:24
(UTC-05:00)

AO-73 - Visible Passes

Search period start: 10 December 2019 00:00
Search period end: 20 December 2019 00:00
Orbit: 582 x 663 km, 97.6° (Epoch: 09 December)

Date Brightness Start Highest point End Pass type
(mag) Time Alt. Az. Time Alt. Az. Time Alt. Az.
10 Dec ? 06:12:53 10° NNE 06:17:04 60° E 06:21:09 10° S visible
10 Dec ? 17:09:45 10° SSE 17:14:12 62° ENE 17:18:35 10° N visible
10 Dec ? 18:48:14 10° SW 18:50:46 15° W 18:53:19 10° NW visible
11 Dec ? 06:31:01 10° NNE 06:35:15 86° WNW 06:39:23 10° SSW visible
11 Dec ? 17:27:50 10° SSE 17:32:20 86° WSW 17:36:48 10° NNW visible
12 Dec ? 05:14:27 10° NE 05:16:47 14° E 05:19:05 10° ESE visible
12 Dec ? 06:49:15 10° N 06:53:23 54° WNW 06:57:23 10° SSW visible
12 Dec ? 17:46:07 10° S 17:50:32 56° W 17:54:54 10° NNW visible
13 Dec ? 05:31:50 10° NE 05:35:07 22° E 05:38:21 10° SE visible
13 Dec ? 18:04:38 10° SSW 18:08:46 36° W 18:12:52 10° NNW visible
14 Dec ? 05:49:36 10° NNE 05:53:25 33° E 05:57:10 10° SSE visible
14 Dec ? 16:46:41 10° SE 16:50:46 37° ENE 16:54:48 10° N visible
14 Dec ? 18:23:26 10° SSW 18:27:03 24° W 18:30:39 10° NW visible
15 Dec ? 06:07:33 10° NNE 06:11:39 53° E 06:15:40 10° S visible
15 Dec ? 17:04:30 10° SSE 17:08:52 56° ENE 17:13:09 10° N visible
15 Dec ? 18:42:38 10° SW 18:45:23 16° W 18:48:08 10° NW visible
16 Dec ? 06:25:39 10° NNE 06:29:50 85° E 06:33:57 10° SSW visible
16 Dec ? 17:22:33 10° SSE 17:27:00 85° ENE 17:31:23 10° NNW visible
16 Dec ? 19:03:08 10° W 19:03:46 10° W 19:04:24 10° W visible
17 Dec ? 05:09:26 10° ENE 05:11:19 13° E 05:13:12 10° ESE visible
17 Dec ? 06:43:51 10° N 06:47:58 61° WNW 06:52:01 10° SSW visible
17 Dec ? 17:40:47 10° S 17:45:11 62° W 17:49:30 10° NNW visible
18 Dec ? 05:26:37 10° NE 05:29:40 20° E 05:32:42 10° SE visible
18 Dec ? 17:59:14 10° SSW 18:03:24 40° W 18:07:30 10° NNW visible
19 Dec ? 05:44:18 10° NNE 05:47:58 30° E 05:51:36 10° SSE visible
19 Dec ? 16:41:30 10° SE 16:45:27 33° ENE 16:49:18 10° N visible
19 Dec ? 18:17:57 10° SSW 18:21:40 26° W 18:25:19 10° NW visible
